Location: Newark
(33.6333°S, 78.8500°W)
Time: 15:14:26
(UTC+00:00)

Altair - Visible Passes

Search period start: 19 September 2019 00:00
Search period end: 29 September 2019 00:00
Orbit: 1501 x 1683 km, 47.2° (Epoch: 19 September)

Date Brightness Start Highest point End Pass type
(mag) Time Alt. Az. Time Alt. Az. Time Alt. Az.
19 Sep 9.2 10:16:01 10° N 10:23:38 29° NE 10:31:10 10° ESE visible
20 Sep 9.2 09:51:17 10° N 09:58:34 26° NE 10:05:46 10° ESE visible
21 Sep 9.3 09:26:38 10° N 09:33:30 23° NE 09:40:17 10° ESE visible
22 Sep 9.3 09:02:03 10° N 09:08:27 21° NE 09:14:46 10° E visible
23 Sep 9.4 08:37:34 10° NNE 08:43:24 18° NE 08:49:10 10° E visible
23 Sep 7.7 10:37:44 10° NW 10:47:00 75° NE 10:56:11 10° SE visible
24 Sep 9.4 08:13:13 10° NNE 08:18:22 16° NE 08:23:26 10° E visible
24 Sep 7.8 10:12:38 10° NW 10:21:52 69° NE 10:31:01 10° ESE visible
25 Sep 9.4 07:49:04 10° NNE 07:53:19 14° ENE 07:57:31 10° E visible
25 Sep 7.8 09:47:34 10° NW 09:56:45 63° NE 10:05:49 10° ESE visible
26 Sep 9.5 07:25:38 10° NE 07:28:16 12° ENE 07:31:14 10° ENE visible
26 Sep 7.9 09:23:43 15° NNW 09:31:38 58° NE 09:40:37 10° ESE visible
27 Sep 7.9 09:00:27 22° NNW 09:06:32 53° NE 09:15:24 10° ESE visible
28 Sep 8.0 08:37:05 30° N 08:41:26 48° NE 08:50:10 10° ESE visible
